Tracking 21094 objects as of 11-Aug-2020
HD Live streaming from Space Station
objects crossing your sky now
Track the most recent launched group of Starlink satellites

ARIANE 5 R/B

Track ARIANE 5 R/B now!


NORAD ID: 25990
Int'l Code: 1999-066B
Perigee: 3,203.9 km
Apogee: 109,457.7 km
Inclination: 61.2 °
Period: 2,604.2 minutes
Semi major axis: 62701 km
RCS: 6.3096 m2 (large)
Launch date: December 10, 1999
Source: France (FR)
Launch site: FRENCH GUIANA (FRGUI)

Note: This is a ROCKET BODY
aabbcc
Your satellite tracking list
Your tracking list is empty




NASA's NSSDC Master Catalog

Two Line Element Set (TLE):
1 25990U 99066B   20226.48601914 -.00000727  00000-0  00000+0 0  9996
2 25990  61.1941  27.4247 8472949  92.6971   0.4318  0.55294658 29553
Source of the keplerian elements: AFSPC